This is the latest recevied weather packets stored in our database for station/object W0AKO. If no packets are shown the sender has not sent any weather packets the latest 10 day(s).
| Time | Temp. | Humidity | Pressure | Rain* | Wind** | Luminosity | Snow |
|---|---|---|---|---|---|---|---|
| 1778104375 | 28.89° C | 10% | 1016.3 hPa | 0 mm | - | 534 W/m² | - |
| 1778104071 | 28.33° C | 10% | 1016.4 hPa | 0 mm | - | 576 W/m² | - |
| 1778103768 | 27.78° C | 10% | 1016.4 hPa | 0 mm | - | 617 W/m² | - |
| 1778103467 | 27.78° C | 10% | 1016.6 hPa | 0 mm | - | 626 W/m² | - |
| 1778103163 | 28.33° C | 10% | 1016.6 hPa | 0 mm | - | 647 W/m² | - |
| 1778102861 | 28.33° C | 10% | 1016.5 hPa | 0 mm | - | 674 W/m² | - |
| 1778102557 | 27.78° C | 10% | 1016.6 hPa | 0 mm | - | 694 W/m² | - |
| 1778102252 | 27.22° C | 10% | 1016.7 hPa | 0 mm | - | 721 W/m² | - |
| 1778101948 | 27.22° C | 10% | 1016.8 hPa | 0 mm | - | 755 W/m² | - |
| 1778101646 | 27.78° C | 10% | 1016.7 hPa | 0 mm | - | 467 W/m² | - |
| 1778101342 | 27.78° C | 10% | 1016.5 hPa | 0 mm | - | 813 W/m² | - |
| 1778101039 | 27.22° C | 10% | 1016.7 hPa | 0 mm | - | 713 W/m² | - |
| 1778100734 | 27.22° C | 10% | 1016.6 hPa | 0 mm | - | 160 W/m² | - |
| 1778100432 | 27.22° C | 10% | 1016.9 hPa | 0 mm | - | 764 W/m² | - |
| 1778100129 | 26.67° C | 10% | 1017 hPa | 0 mm | - | 768 W/m² | - |
| 1778099827 | 27.22° C | 10% | 1016.7 hPa | 0 mm | - | 784 W/m² | - |
| 1778099524 | 25.56° C | 10% | 1016.8 hPa | 0 mm | - | 861 W/m² | - |
| 1778099222 | 26.11° C | 10% | 1017 hPa | 0 mm | - | 173 W/m² | - |
| 1778098917 | 27.22° C | 10% | 1016.8 hPa | 0 mm | - | 860 W/m² | - |
| 1778098615 | 27.22° C | 10% | 1017 hPa | 0 mm | - | 857 W/m² | - |
| 1778098311 | 27.78° C | 10% | 1017 hPa | 0 mm | - | 543 W/m² | - |
| 1778098008 | 28.33° C | 10% | 1017.1 hPa | 0 mm | - | 823 W/m² | - |
| 1778097704 | 27.78° C | 10% | 1017.2 hPa | 0 mm | - | 796 W/m² | - |
| 1778097401 | 27.22° C | 10% | 1017.3 hPa | 0 mm | - | 802 W/m² | - |
| 1778097098 | 25.56° C | 10% | 1017.1 hPa | 0 mm | - | 766 W/m² | - |
* Rain latest hour (hover to see other rain measurements)
** Current wind speed in m/s (hover to see current wind gust speed)